Total_Precipitation_Accumulation
-0.11 -0.13 -0.13 -0.14 -0.15 -0.15 -0.15 -0.15 -0.17 -0.17 -0.23 -0.24 -0.23 -0.19 -0.19 -0.18 -0.16 -0.17 -0.17 -0.21 -0.23 -0.16 -0.16 -0.11 -0.06 -0.05 -0.05 -0.04 -0.06 -0.06 -0.11 -0.14 -0.15 -0.17 -0.17 -0.56 -0.75 -1.01 -1.01 -0.99 -0.84 -0.75 -0.75 -0.82 -0.87 -0.87 -0.97 -0.75 -0.55 -0.55 -0.47 -0.37 -0.43 -0.36 -0.36 -0.34 -0.26 -0.23 -0.23 -0.28 -0.26 -0.22 -0.22 -0.21 -0.21 -0.21 -0.17 -0.18 -0.17
-0.10 -0.13 -0.13 -0.13 -0.15 -0.15 -0.15 -0.13 -0.14 -0.14 -0.22 -0.24 -0.24 -0.21 -0.21 -0.21 -0.18 -0.17 -0.17 -0.22 -0.26 -0.22 -0.22 -0.12 -0.08 -0.06 -0.06 -0.04 -0.04 -0.04 -0.07 -0.08 -0.12 -0.18 -0.18 -0.32 -0.41 -0.73 -0.73 -1.02 -0.89 -0.86 -0.86 -1.04 -1.14 -1.14 -1.01 -0.82 -0.62 -0.62 -0.57 -0.53 -0.52 -0.50 -0.50 -0.31 -0.28 -0.33 -0.33 -0.36 -0.39 -0.31 -0.31 -0.30 -0.26 -0.26 -0.20 -0.19 -0.19
-0.05 -0.08 -0.08 -0.12 -0.16 -0.16 -0.18 -0.18 -0.16 -0.16 -0.20 -0.24 -0.24 -0.21 -0.21 -0.21 -0.18 -0.18 -0.18 -0.22 -0.23 -0.20 -0.20 -0.15 -0.13 -0.09 -0.09 -0.05 -0.04 -0.04 -0.06 -0.07 -0.08 -0.11 -0.11 -0.17 -0.26 -0.40 -0.40 -0.68 -1.03 -1.04 -1.04 -0.96 -0.92 -0.92 -0.87 -0.77 -0.78 -0.78 -0.71 -0.66 -0.62 -0.58 -0.58 -0.35 -0.30 -0.34 -0.34 -0.36 -0.43 -0.45 -0.45 -0.39 -0.34 -0.34 -0.26 -0.23 -0.22
-0.03 -0.05 -0.05 -0.13 -0.17 -0.17 -0.23 -0.27 -0.24 -0.24 -0.20 -0.25 -0.23 -0.21 -0.21 -0.20 -0.17 -0.17 -0.17 -0.20 -0.18 -0.18 -0.18 -0.18 -0.15 -0.12 -0.12 -0.08 -0.08 -0.08 -0.07 -0.05 -0.05 -0.07 -0.07 -0.13 -0.18 -0.23 -0.23 -0.31 -0.43 -0.70 -0.70 -0.97 -0.94 -0.94 -0.90 -0.92 -1.05 -1.05 -1.03 -0.86 -0.80 -0.67 -0.67 -0.56 -0.39 -0.37 -0.37 -0.40 -0.49 -0.58 -0.58 -0.49 -0.44 -0.44 -0.37 -0.26 -0.32
-0.03 -0.04 -0.04 -0.13 -0.16 -0.16 -0.17 -0.20 -0.21 -0.21 -0.22 -0.24 -0.23 -0.22 -0.22 -0.18 -0.14 -0.11 -0.11 -0.14 -0.18 -0.20 -0.20 -0.20 -0.17 -0.14 -0.14 -0.13 -0.12 -0.12 -0.06 -0.03 -0.03 -0.04 -0.04 -0.08 -0.09 -0.12 -0.12 -0.13 -0.23 -0.39 -0.39 -0.75 -0.78 -0.78 -0.83 -0.70 -0.97 -0.97 -1.23 -1.00 -0.87 -0.81 -0.81 -0.71 -0.57 -0.44 -0.44 -0.57 -0.61 -0.66 -0.66 -0.71 -0.55 -0.55 -0.47 -0.37 -0.47
-0.05 -0.04 -0.04 -0.10 -0.13 -0.13 -0.17 -0.18 -0.18 -0.18 -0.18 -0.19 -0.19 -0.19 -0.19 -0.19 -0.16 -0.15 -0.15 -0.15 -0.20 -0.21 -0.21 -0.18 -0.16 -0.13 -0.13 -0.12 -0.13 -0.13 -0.10 -0.06 -0.04 -0.03 -0.03 -0.05 -0.06 -0.07 -0.07 -0.09 -0.15 -0.22 -0.22 -0.34 -0.61 -0.61 -0.44 -0.51 -0.59 -0.59 -0.74 -0.91 -0.83 -0.81 -0.81 -0.88 -0.82 -0.62 -0.62 -0.73 -0.73 -0.77 -0.77 -0.78 -0.68 -0.68 -0.55 -0.48 -0.60
-0.09 -0.07 -0.07 -0.05 -0.09 -0.09 -0.12 -0.15 -0.17 -0.17 -0.13 -0.15 -0.17 -0.19 -0.19 -0.20 -0.17 -0.16 -0.16 -0.17 -0.14 -0.15 -0.15 -0.15 -0.14 -0.13 -0.13 -0.13 -0.13 -0.13 -0.14 -0.11 -0.07 -0.05 -0.05 -0.04 -0.05 -0.05 -0.05 -0.05 -0.08 -0.14 -0.14 -0.19 -0.42 -0.42 -0.35 -0.36 -0.39 -0.39 -0.45 -0.55 -0.59 -0.73 -0.73 -0.93 -0.96 -0.77 -0.77 -0.81 -0.80 -0.92 -0.92 -0.94 -0.83 -0.83 -0.77 -0.64 -0.80
-0.07 -0.11 -0.11 -0.05 -0.06 -0.06 -0.10 -0.11 -0.11 -0.11 -0.10 -0.12 -0.15 -0.19 -0.19 -0.19 -0.16 -0.12 -0.12 -0.11 -0.10 -0.12 -0.12 -0.11 -0.12 -0.13 -0.13 -0.13 -0.12 -0.12 -0.13 -0.16 -0.12 -0.08 -0.08 -0.06 -0.06 -0.05 -0.05 -0.03 -0.05 -0.07 -0.07 -0.11 -0.30 -0.30 -0.26 -0.35 -0.39 -0.39 -0.35 -0.35 -0.34 -0.51 -0.51 -0.75 -0.87 -0.62 -0.62 -0.79 -0.89 -1.00 -1.00 -1.06 -1.04 -1.04 -1.04 -0.90 -1.00
-0.01 -0.04 -0.04 -0.08 -0.04 -0.04 -0.06 -0.10 -0.09 -0.09 -0.07 -0.09 -0.13 -0.16 -0.16 -0.15 -0.13 -0.11 -0.11 -0.12 -0.17 -0.14 -0.14 -0.12 -0.10 -0.11 -0.11 -0.13 -0.10 -0.10 -0.11 -0.19 -0.16 -0.10 -0.10 -0.08 -0.07 -0.07 -0.07 -0.05 -0.04 -0.05 -0.05 -0.06 -0.07 -0.07 -0.24 -0.36 -0.41 -0.41 -0.37 -0.33 -0.30 -0.36 -0.36 -0.51 -0.68 -0.57 -0.57 -0.51 -0.92 -1.00 -1.00 -1.13 -1.32 -1.32 -1.33 -1.49 -1.26
0.00 0.00 0.00 -0.07 -0.16 -0.16 -0.16 -0.05 -0.07 -0.07 -0.07 -0.06 -0.09 -0.12 -0.12 -0.14 -0.13 -0.16 -0.16 -0.17 -0.17 -0.15 -0.15 -0.15 -0.14 -0.13 -0.13 -0.12 -0.14 -0.14 -0.11 -0.19 -0.17 -0.10 -0.10 -0.08 -0.07 -0.08 -0.08 -0.09 -0.07 -0.06 -0.06 -0.07 -0.10 -0.10 -0.27 -0.42 -0.55 -0.55 -0.51 -0.41 -0.33 -0.33 -0.33 -0.42 -0.65 -0.59 -0.59 -0.49 -0.57 -0.93 -0.93 -1.18 -1.48 -1.48 -1.58 -1.66 -1.54
0.00 0.00 0.00 -0.02 -0.07 -0.07 -0.14 -0.18 -0.10 -0.10 -0.03 -0.04 -0.05 -0.04 -0.04 -0.06 -0.13 -0.15 -0.15 -0.14 -0.17 -0.18 -0.18 -0.18 -0.13 -0.14 -0.14 -0.15 -0.17 -0.17 -0.16 -0.18 -0.17 -0.12 -0.12 -0.09 -0.07 -0.07 -0.07 -0.10 -0.11 -0.09 -0.09 -0.12 -0.11 -0.11 -0.17 -0.37 -0.60 -0.60 -0.63 -0.57 -0.43 -0.36 -0.36 -0.40 -0.68 -0.63 -0.63 -0.55 -0.54 -0.85 -0.85 -1.12 -1.54 -1.54 -1.74 -1.62 -1.55
0.00 0.01 0.01 0.01 -0.01 -0.01 -0.07 -0.16 -0.19 -0.19 -0.04 -0.03 -0.05 -0.06 -0.06 -0.06 -0.09 -0.20 -0.20 -0.25 -0.25 -0.21 -0.21 -0.18 -0.19 -0.16 -0.16 -0.17 -0.17 -0.17 -0.19 -0.21 -0.21 -0.16 -0.16 -0.11 -0.09 -0.07 -0.07 -0.08 -0.12 -0.13 -0.13 -0.14 -0.14 -0.14 -0.16 -0.32 -0.53 -0.53 -0.74 -0.73 -0.64 -0.48 -0.48 -0.42 -0.68 -0.62 -0.62 -0.56 -0.54 -0.63 -0.63 -1.02 -1.47 -1.47 -1.68 -1.42 -1.42
0.01 0.01 0.01 0.01 0.01 0.01 -0.00 -0.06 -0.16 -0.16 -0.14 -0.06 -0.05 -0.07 -0.07 -0.08 -0.07 -0.15 -0.15 -0.20 -0.25 -0.20 -0.20 -0.18 -0.22 -0.24 -0.24 -0.23 -0.22 -0.22 -0.21 -0.22 -0.22 -0.21 -0.21 -0.15 -0.11 -0.09 -0.09 -0.09 -0.11 -0.14 -0.14 -0.14 -0.14 -0.14 -0.15 -0.17 -0.42 -0.42 -0.73 -0.82 -0.81 -0.58 -0.58 -0.50 -0.74 -0.57 -0.57 -0.57 -0.54 -0.61 -0.61 -0.71 -1.14 -1.14 -1.19 -1.10 -1.04
0.01 0.01 0.01 0.01 0.01 0.01 0.01 -0.00 -0.05 -0.05 -0.35 -0.21 -0.19 -0.19 -0.19 -0.21 -0.19 -0.13 -0.13 -0.15 -0.17 -0.15 -0.15 -0.12 -0.12 -0.19 -0.19 -0.26 -0.28 -0.28 -0.24 -0.24 -0.20 -0.21 -0.21 -0.18 -0.14 -0.12 -0.12 -0.12 -0.13 -0.16 -0.16 -0.17 -0.16 -0.16 -0.15 -0.15 -0.17 -0.17 -0.64 -0.89 -0.84 -0.70 -0.70 -0.56 -0.45 -0.56 -0.56 -0.58 -0.57 -0.58 -0.58 -0.69 -0.80 -0.80 -1.24 -1.12 -1.00
0.01 0.01 0.01 0.01 0.01 0.01 0.01 0.00 -0.00 -0.00 -0.13 -0.30 -0.33 -0.44 -0.44 -0.49 -0.64 -0.55 -0.55 -0.30 -0.21 -0.13 -0.13 -0.07 -0.08 -0.14 -0.14 -0.23 -0.26 -0.26 -0.25 -0.28 -0.21 -0.18 -0.18 -0.17 -0.15 -0.15 -0.15 -0.14 -0.14 -0.17 -0.17 -0.16 -0.16 -0.16 -0.15 -0.15 -0.15 -0.15 -0.35 -0.66 -0.83 -0.79 -0.79 -0.72 -0.54 -0.53 -0.53 -0.53 -0.52 -0.53 -0.53 -0.63 -0.78 -0.78 -0.98 -1.29 -1.16
0.01 0.01 0.01 0.01 0.01 0.01 0.01 0.00 -0.01 -0.01 -0.03 -0.10 -0.25 -0.30 -0.30 -0.31 -0.29 -0.49 -0.49 -0.57 -0.40 -0.27 -0.27 -0.08 -0.06 -0.08 -0.08 -0.14 -0.25 -0.25 -0.27 -0.32 -0.23 -0.17 -0.17 -0.18 -0.17 -0.16 -0.16 -0.17 -0.16 -0.16 -0.16 -0.17 -0.17 -0.17 -0.18 -0.17 -0.16 -0.16 -0.15 -0.41 -0.74 -0.80 -0.80 -0.83 -0.73 -0.52 -0.52 -0.44 -0.47 -0.48 -0.48 -0.52 -0.67 -0.67 -0.74 -1.20 -1.39
0.01 0.01 0.01 0.01 0.01 0.01 0.01 0.01 -0.00 -0.00 -0.02 -0.02 -0.07 -0.18 -0.18 -0.25 -0.22 -0.24 -0.24 -0.38 -0.53 -0.40 -0.40 -0.27 -0.10 -0.06 -0.06 -0.08 -0.13 -0.13 -0.21 -0.26 -0.27 -0.19 -0.19 -0.20 -0.19 -0.18 -0.18 -0.17 -0.17 -0.18 -0.18 -0.17 -0.17 -0.17 -0.17 -0.18 -0.18 -0.18 -0.19 -0.30 -0.63 -0.75 -0.75 -0.76 -0.79 -0.67 -0.67 -0.46 -0.34 -0.35 -0.35 -0.37 -0.32 -0.32 -0.46 -0.83 -1.12
0.01 0.01 0.01 0.01 0.01 0.01 0.01 0.01 0.01 0.01 -0.00 -0.02 -0.02 -0.01 -0.01 -0.03 -0.10 -0.11 -0.11 -0.10 -0.11 -0.16 -0.16 -0.28 -0.71 -0.77 -0.77 -0.35 -0.13 -0.13 -0.10 -0.17 -0.12 -0.12 -0.12 -0.16 -0.17 -0.13 -0.13 -0.12 -0.11 -0.11 -0.11 -0.12 -0.12 -0.12 -0.13 -0.14 -0.17 -0.17 -0.20 -0.22 -0.23 -0.31 -0.31 -0.46 -0.51 -0.48 -0.48 -0.47 -0.46 -0.34 -0.34 -0.28 -0.28 -0.28 -0.29 -0.36 -0.62
0.01 0.01 0.01 0.01 0.01 0.01 0.01 0.01 0.01 0.01 0.00 -0.00 -0.01 -0.01 -0.01 -0.00 -0.01 -0.12 -0.12 -0.11 -0.10 -0.11 -0.11 -0.11 -0.15 -0.42 -0.42 -0.75 -0.72 -0.72 -0.40 -0.47 -0.33 -0.13 -0.13 -0.11 -0.12 -0.11 -0.11 -0.10 -0.09 -0.09 -0.09 -0.09 -0.09 -0.09 -0.12 -0.13 -0.16 -0.16 -0.19 -0.21 -0.21 -0.23 -0.23 -0.31 -0.36 -0.33 -0.33 -0.30 -0.36 -0.35 -0.35 -0.31 -0.28 -0.28 -0.30 -0.31 -0.44
0.01 0.01 0.01 0.01 0.01 0.01 0.01 0.01 0.01 0.01 0.01 0.00 0.00 -0.00 -0.00 -0.00 0.00 -0.03 -0.03 -0.05 -0.10 -0.17 -0.17 -0.15 -0.11 -0.11 -0.11 -0.49 -0.70 -0.70 -0.69 -0.63 -0.72 -0.34 -0.34 -0.53 -0.18 -0.11 -0.11 -0.10 -0.10 -0.08 -0.08 -0.08 -0.08 -0.08 -0.11 -0.14 -0.16 -0.16 -0.18 -0.20 -0.18 -0.21 -0.21 -0.25 -0.28 -0.28 -0.28 -0.23 -0.27 -0.30 -0.30 -0.27 -0.29 -0.29 -0.32 -0.33 -0.35
0.01 0.01 0.01 0.01 0.01 0.01 0.01 0.00 0.01 0.01 0.01 0.01 0.01 0.00 0.00 -0.00 -0.00 -0.01 -0.01 -0.01 -0.01 -0.05 -0.05 -0.16 -0.21 -0.17 -0.17 -0.15 -0.38 -0.38 -0.51 -0.46 -0.47 -0.46 -0.46 -0.55 -0.58 -0.27 -0.27 -0.16 -0.12 -0.13 -0.13 -0.12 -0.08 -0.08 -0.08 -0.12 -0.14 -0.14 -0.15 -0.12 -0.13 -0.15 -0.15 -0.17 -0.20 -0.23 -0.23 -0.22 -0.22 -0.24 -0.24 -0.25 -0.26 -0.26 -0.28 -0.38 -0.37
0.00 0.00 0.00 0.00 0.01 0.01 0.00 0.01 0.01 0.01 0.01 0.01 0.01 0.01 0.01 0.00 -0.00 -0.01 -0.01 -0.01 -0.01 -0.01 -0.01 -0.05 -0.13 -0.20 -0.20 -0.17 -0.22 -0.22 -0.30 -0.33 -0.30 -0.25 -0.25 -0.26 -0.28 -0.39 -0.39 -0.33 -0.22 -0.14 -0.14 -0.16 -0.17 -0.17 -0.14 -0.10 -0.11 -0.11 -0.12 -0.11 -0.11 -0.11 -0.11 -0.12 -0.14 -0.18 -0.18 -0.21 -0.21 -0.23 -0.23 -0.24 -0.24 -0.24 -0.24 -0.27 -0.40
0.00 0.00 0.00 0.00 0.01 0.01 0.01 0.01 0.01 0.01 0.01 0.01 0.01 0.01 0.01 0.01 0.01 -0.00 -0.00 -0.01 -0.02 -0.01 -0.01 -0.01 -0.04 -0.11 -0.11 -0.17 -0.13 -0.13 -0.17 -0.23 -0.14 -0.18 -0.18 -0.20 -0.20 -0.18 -0.18 -0.21 -0.30 -0.33 -0.33 -0.21 -0.20 -0.20 -0.21 -0.20 -0.11 -0.11 -0.14 -0.11 -0.11 -0.12 -0.12 -0.12 -0.12 -0.14 -0.14 -0.19 -0.21 -0.26 -0.26 -0.27 -0.26 -0.26 -0.25 -0.27 -0.28
0.00 0.00 0.00 0.00 0.01 0.01 0.01 0.01 0.01 0.01 0.01 0.00 0.00 0.01 0.01 0.01 0.01 0.01 0.01 -0.01 -0.02 -0.02 -0.02 -0.02 -0.02 -0.02 -0.02 -0.07 -0.09 -0.09 -0.09 -0.05 -0.07 -0.10 -0.10 -0.12 -0.15 -0.15 -0.15 -0.13 -0.15 -0.20 -0.20 -0.27 -0.31 -0.31 -0.26 -0.23 -0.21 -0.21 -0.21 -0.18 -0.16 -0.14 -0.14 -0.14 -0.14 -0.15 -0.15 -0.17 -0.23 -0.29 -0.29 -0.29 -0.28 -0.28 -0.27 -0.28 -0.29
0.00 0.00 0.00 0.00 0.01 0.01 0.01 0.01 0.00 0.00 0.00 0.00 0.00 0.00 0.00 0.01 0.01 0.01 0.01 -0.00 -0.01 -0.02 -0.02 -0.02 -0.03 -0.02 -0.02 -0.01 -0.03 -0.03 -0.03 -0.03 -0.03 -0.04 -0.04 -0.07 -0.10 -0.10 -0.10 -0.11 -0.11 -0.12 -0.12 -0.16 -0.19 -0.19 -0.23 -0.29 -0.26 -0.26 -0.21 -0.18 -0.21 -0.20 -0.20 -0.17 -0.15 -0.15 -0.15 -0.18 -0.21 -0.26 -0.26 -0.26 -0.25 -0.25 -0.24 -0.25 -0.28
0.00 0.00 0.00 0.00 0.00 0.00 0.01 0.01 0.00 0.00 0.00 0.00 0.00 0.00 0.00 0.01 0.01 0.01 0.01 0.00 -0.00 -0.01 -0.01 -0.02 -0.03 -0.02 -0.02 -0.02 -0.02 -0.02 -0.02 -0.02 -0.02 -0.02 -0.02 -0.04 -0.06 -0.08 -0.08 -0.09 -0.10 -0.11 -0.11 -0.12 -0.12 -0.12 -0.14 -0.16 -0.14 -0.14 -0.15 -0.18 -0.17 -0.21 -0.21 -0.21 -0.20 -0.17 -0.17 -0.18 -0.17 -0.19 -0.19 -0.24 -0.22 -0.22 -0.20 -0.21 -0.23
0.00 0.00 0.00 0.00 0.00 0.00 0.00 0.00 0.00 0.00 0.00 0.00 0.00 0.00 0.00 0.01 0.01 0.01 0.01 0.00 -0.00 -0.00 -0.00 -0.01 -0.02 -0.02 -0.02 -0.03 -0.02 -0.02 -0.02 -0.02 -0.03 -0.03 -0.03 -0.03 -0.03 -0.06 -0.06 -0.08 -0.09 -0.09 -0.09 -0.10 -0.10 -0.10 -0.10 -0.12 -0.12 -0.12 -0.12 -0.13 -0.16 -0.16 -0.16 -0.16 -0.18 -0.20 -0.20 -0.20 -0.23 -0.18 -0.18 -0.18 -0.23 -0.23 -0.22 -0.23 -0.25
0.00 0.00 0.00 0.00 0.00 0.00 0.00 0.00 0.00 0.00 0.00 0.00 0.00 0.00 0.00 0.01 0.01 0.01 0.01 0.00 0.00 -0.00 -0.00 -0.01 -0.01 -0.01 -0.01 -0.01 -0.02 -0.02 -0.02 -0.03 -0.03 -0.03 -0.03 -0.03 -0.03 -0.04 -0.04 -0.06 -0.08 -0.09 -0.09 -0.06 -0.07 -0.07 -0.08 -0.07 -0.09 -0.09 -0.10 -0.11 -0.11 -0.13 -0.13 -0.13 -0.13 -0.15 -0.15 -0.20 -0.19 -0.23 -0.23 -0.23 -0.17 -0.17 -0.22 -0.25 -0.26
0.00 0.00 0.00 0.00 0.00 0.00 0.00 0.00 0.00 0.00 -0.00 -0.00 0.00 0.00 0.00 0.00 0.01 0.00 0.00 0.00 -0.00 -0.01 -0.01 -0.01 -0.01 -0.01 -0.01 -0.01 -0.01 -0.01 -0.01 -0.03 -0.03 -0.03 -0.03 -0.03 -0.03 -0.03 -0.03 -0.03 -0.05 -0.07 -0.07 -0.07 -0.06 -0.06 -0.06 -0.06 -0.05 -0.05 -0.07 -0.09 -0.11 -0.10 -0.10 -0.12 -0.12 -0.12 -0.12 -0.16 -0.14 -0.16 -0.16 -0.20 -0.23 -0.23 -0.20 -0.18 -0.26
0.00 0.00 0.00 0.00 0.00 0.00 0.00 0.00 0.00 0.00 -0.00 -0.00 -0.00 0.00 0.00 0.00 0.00 0.00 0.00 0.00 -0.00 -0.01 -0.01 -0.01 -0.01 -0.01 -0.01 -0.01 -0.01 -0.01 -0.01 -0.01 -0.02 -0.03 -0.03 -0.04 -0.03 -0.03 -0.03 -0.04 -0.04 -0.04 -0.04 -0.06 -0.08 -0.08 -0.08 -0.08 -0.06 -0.06 -0.05 -0.05 -0.07 -0.09 -0.09 -0.09 -0.09 -0.09 -0.09 -0.06 -0.06 -0.09 -0.09 -0.12 -0.16 -0.16 -0.20 -0.20 -0.21
0.00 -0.00 -0.00 -0.00 0.00 0.00 0.00 0.00 -0.00 -0.00 -0.00 -0.00 -0.00 0.00 0.00 0.00 0.00 0.00 0.00 -0.00 -0.00 -0.00 -0.00 -0.00 -0.00 -0.01 -0.01 -0.01 -0.01 -0.01 -0.01 -0.01 -0.01 -0.02 -0.02 -0.03 -0.05 -0.05 -0.05 -0.04 -0.05 -0.04 -0.04 -0.04 -0.06 -0.06 -0.08 -0.09 -0.08 -0.08 -0.06 -0.05 -0.05 -0.06 -0.06 -0.07 -0.07 -0.06 -0.06 -0.04 -0.03 -0.03 -0.03 -0.05 -0.09 -0.09 -0.14 -0.17 -0.19
-0.00 -0.00 -0.00 -0.00 -0.00 -0.00 -0.00 -0.00 -0.00 -0.00 -0.00 -0.00 -0.00 0.00 0.00 0.00 -0.00 0.00 0.00 -0.00 -0.00 -0.00 -0.00 -0.01 -0.01 -0.01 -0.01 -0.01 -0.01 -0.01 -0.01 -0.01 -0.01 -0.01 -0.01 -0.01 -0.02 -0.05 -0.05 -0.06 -0.07 -0.06 -0.06 -0.05 -0.07 -0.07 -0.06 -0.09 -0.09 -0.09 -0.08 -0.06 -0.06 -0.05 -0.05 -0.05 -0.06 -0.06 -0.06 -0.05 -0.03 -0.02 -0.02 -0.02 -0.03 -0.03 -0.06 -0.09 -0.06
-0.00 -0.00 -0.00 -0.00 -0.00 -0.00 -0.00 -0.00 -0.00 -0.00 -0.00 -0.00 -0.01 -0.00 -0.00 -0.00 -0.00 0.00 0.00 -0.00 -0.00 -0.00 -0.00 -0.01 -0.01 -0.01 -0.01 -0.01 -0.01 -0.01 -0.01 -0.01 -0.01 -0.01 -0.01 -0.01 -0.01 -0.01 -0.01 -0.03 -0.07 -0.09 -0.09 -0.09 -0.10 -0.10 -0.09 -0.08 -0.10 -0.10 -0.10 -0.08 -0.07 -0.07 -0.07 -0.06 -0.06 -0.05 -0.05 -0.05 -0.04 -0.03 -0.03 -0.03 -0.03 -0.03 -0.03 -0.05 -0.05
-0.00 -0.00 -0.00 -0.00 -0.00 -0.00 -0.00 -0.00 -0.00 -0.00 -0.00 -0.00 -0.01 -0.00 -0.00 -0.00 -0.00 -0.00 -0.00 -0.00 -0.00 -0.01 -0.01 -0.01 -0.01 -0.01 -0.01 -0.01 -0.01 -0.01 -0.01 -0.01 -0.01 -0.01 -0.01 -0.01 -0.00 -0.00 -0.00 -0.00 -0.02 -0.06 -0.06 -0.05 -0.09 -0.09 -0.11 -0.10 -0.09 -0.09 -0.11 -0.11 -0.10 -0.09 -0.09 -0.07 -0.06 -0.06 -0.06 -0.05 -0.04 -0.04 -0.04 -0.04 -0.03 -0.03 -0.03 -0.03 -0.03
-0.00 -0.00 -0.00 -0.00 -0.00 -0.00 -0.00 -0.00 -0.00 -0.00 -0.00 -0.00 -0.01 -0.01 -0.01 -0.01 -0.00 -0.00 -0.00 -0.00 -0.00 -0.01 -0.01 -0.01 -0.01 -0.01 -0.01 -0.01 -0.01 -0.01 -0.01 -0.01 -0.00 -0.01 -0.01 -0.01 -0.00 -0.00 -0.00 0.00 0.00 -0.01 -0.01 -0.01 -0.04 -0.04 -0.08 -0.11 -0.10 -0.10 -0.11 -0.13 -0.13 -0.11 -0.11 -0.09 -0.08 -0.08 -0.08 -0.06 -0.06 -0.05 -0.05 -0.05 -0.05 -0.05 -0.03 -0.03 -0.03
-0.00 -0.00 -0.00 -0.00 -0.00 -0.00 -0.00 -0.00 -0.00 -0.00 -0.00 -0.00 -0.01 -0.01 -0.01 -0.01 -0.00 -0.00 -0.00 -0.00 -0.00 -0.01 -0.01 -0.01 -0.01 -0.01 -0.01 -0.01 -0.01 -0.01 -0.01 -0.01 -0.00 -0.00 -0.00 -0.01 -0.00 -0.00 -0.00 0.00 0.00 -0.00 -0.00 -0.01 -0.01 -0.01 -0.03 -0.07 -0.11 -0.11 -0.11 -0.13 -0.14 -0.14 -0.14 -0.12 -0.14 -0.11 -0.11 -0.09 -0.08 -0.07 -0.07 -0.06 -0.07 -0.07 -0.07 -0.07 -0.05
-0.00 -0.00 -0.00 -0.00 -0.00 -0.00 -0.00 -0.00 -0.00 -0.00 -0.00 -0.00 -0.01 -0.01 -0.01 -0.01 -0.01 -0.01 -0.01 -0.00 -0.00 -0.00 -0.00 -0.01 -0.01 -0.01 -0.01 -0.01 -0.01 -0.01 -0.01 -0.01 -0.00 -0.00 -0.00 -0.01 -0.01 -0.00 -0.00 0.00 0.01 -0.00 -0.00 -0.00 -0.01 -0.01 -0.01 -0.03 -0.06 -0.06 -0.10 -0.12 -0.13 -0.15 -0.15 -0.15 -0.16 -0.15 -0.15 -0.13 -0.11 -0.11 -0.11 -0.10 -0.08 -0.08 -0.08 -0.09 -0.08
-0.00 -0.00 -0.00 -0.00 -0.00 -0.00 -0.00 -0.00 -0.00 -0.00 -0.00 -0.00 -0.01 -0.01 -0.01 -0.01 -0.01 -0.01 -0.01 -0.00 -0.00 -0.00 -0.00 -0.01 -0.01 -0.00 -0.00 -0.01 -0.01 -0.01 -0.01 -0.01 -0.00 -0.00 -0.00 -0.00 -0.00 -0.00 -0.00 0.00 0.00 0.00 0.00 -0.00 -0.01 -0.01 -0.01 -0.01 -0.02 -0.02 -0.05 -0.08 -0.12 -0.15 -0.15 -0.16 -0.16 -0.17 -0.17 -0.16 -0.15 -0.14 -0.14 -0.15 -0.15 -0.15 -0.11 -0.12 -0.10
-0.00 -0.00 -0.00 -0.00 -0.00 -0.00 -0.00 -0.00 -0.00 -0.00 -0.00 -0.01 -0.01 -0.01 -0.01 -0.01 -0.01 -0.01 -0.01 -0.01 -0.01 -0.00 -0.00 -0.01 -0.01 -0.00 -0.00 -0.01 -0.01 -0.01 -0.00 -0.00 0.00 -0.00 -0.00 -0.00 -0.00 0.00 0.00 -0.00 0.00 0.00 0.00 -0.00 -0.00 -0.00 -0.01 -0.01 -0.01 -0.01 -0.02 -0.04 -0.06 -0.11 -0.11 -0.10 -0.13 -0.14 -0.14 -0.16 -0.18 -0.17 -0.17 -0.19 -0.20 -0.20 -0.17 -0.15 -0.10
-0.00 -0.00 -0.00 -0.00 -0.00 -0.00 -0.00 -0.00 -0.00 -0.00 -0.01 -0.00 -0.00 -0.01 -0.01 -0.01 -0.01 -0.01 -0.01 -0.01 -0.01 -0.01 -0.01 -0.01 -0.01 -0.01 -0.01 -0.00 -0.00 -0.00 -0.00 -0.00 0.00 0.00 0.00 -0.00 -0.00 0.00 0.00 -0.00 0.00 0.00 0.00 -0.00 -0.00 -0.00 -0.00 -0.01 -0.01 -0.01 -0.02 -0.02 -0.04 -0.06 -0.06 -0.08 -0.10 -0.11 -0.11 -0.15 -0.19 -0.19 -0.19 -0.20 -0.21 -0.21 -0.20 -0.16 -0.12
0.00 -0.00 -0.00 -0.00 -0.00 -0.00 -0.00 -0.00 -0.00 -0.00 -0.01 -0.00 -0.00 -0.01 -0.01 -0.01 -0.01 -0.01 -0.01 -0.01 -0.01 -0.01 -0.01 -0.01 -0.01 -0.01 -0.01 -0.00 -0.00 -0.00 -0.00 0.00 0.00 0.00 0.00 0.00 -0.00 0.00 0.00 -0.00 -0.00 0.00 0.00 -0.00 -0.00 -0.00 -0.00 -0.01 -0.01 -0.01 -0.01 -0.02 -0.03 -0.05 -0.05 -0.07 -0.10 -0.11 -0.11 -0.11 -0.14 -0.18 -0.18 -0.17 -0.19 -0.19 -0.17 -0.15 -0.13